sat.trackr.live / text

‹ back to catalog

ISS OBJECT XY

NORAD 66912 · 1998-067XY

PAYLOAD ACTIVE UNKNOWN

§ Identity

Operator
Country
TBD
Launch date
1998-11-20
Launch site
TYMSC
Launch vehicle
Mass (kg)
RCS (m²)

Purposes: station

External: N2YO · Heavens-Above · Gunter

§ Orbital elements

Epoch: 2026-05-24T21:46:49.728000Z

Period
90.97 min
Inclination
51.6220°
Eccentricity
0.0004799
Mean motion
15.82853823 rev/d
Perigee alt
319.2 km
Apogee alt
325.6 km
Semi-major
6,700.5 km
B*
9.0501e-4
RAAN
36.5143°
Arg perigee
152.3505°
Mean anomaly
207.7754°
Rev number
2,714

§ Raw data

ISS OBJECT XY1 66912U 98067XY  26144.90752000  .00200214  00000+0  90501-3 0  99902 66912  51.6220  36.5143 0004799 152.3505 207.7754 15.82853823 27145

JSON: /api/v1/satellites/66912 · /tle

For live sub-satellite position, see the globe view (requires WebGL).

§ Visibility from observer

Set your observer location to see the next 7 days of passes ≥ 10°. The values pass through the URL so the page stays shareable.

No JS? Fill the form by hand. The geolocation button needs JavaScript.